Time,TemperatureF,DewpointF,PressureIn,WindDirection,WindDirectionDegrees,WindSpeedMPH,WindSpeedGustMPH,Humidity,HourlyPrecipIn,Conditions,Clouds,dailyrainin,SoftwareType,DateUTC
2013-10-29 00:01:00,31.9,23.2,30.36,NNE,24,2.0,3.0,70,0.00,,,0.00,vanprod-2.3,2013-10-29 05:01:00,
2013-10-29 00:06:00,31.9,23.2,30.36,NNE,24,2.0,2.0,70,0.00,,,0.00,vanprod-2.3,2013-10-29 05:06:00,
2013-10-29 00:11:00,32.0,23.3,30.36,NNE,24,2.0,2.0,70,0.00,,,0.00,vanprod-2.3,2013-10-29 05:11:00,
2013-10-29 00:16:00,32.0,23.3,30.36,NNE,24,2.0,3.0,70,0.00,,,0.00,vanprod-2.3,2013-10-29 05:16:00,
2013-10-29 00:21:00,32.2,23.5,30.36,NNE,24,1.0,3.0,70,0.00,,,0.00,vanprod-2.3,2013-10-29 05:21:00,
2013-10-29 00:26:00,32.2,23.5,30.36,NNE,24,1.0,4.0,70,0.00,,,0.00,vanprod-2.3,2013-10-29 05:26:00,
2013-10-29 00:31:00,32.3,24.0,30.36,NNE,24,1.0,0.0,71,0.00,,,0.00,vanprod-2.3,2013-10-29 05:31:00,
2013-10-29 00:36:00,32.3,24.0,30.37,NNE,24,1.0,2.0,71,0.00,,,0.00,vanprod-2.3,2013-10-29 05:36:00,
2013-10-29 00:41:00,32.3,24.0,30.37,NNE,24,1.0,2.0,71,0.00,,,0.00,vanprod-2.3,2013-10-29 05:41:00,
2013-10-29 00:46:00,32.4,24.1,30.37,NNE,24,1.0,3.0,71,0.00,,,0.00,vanprod-2.3,2013-10-29 05:46:00,
2013-10-29 00:51:00,32.4,24.1,30.37,NNE,24,2.0,2.0,71,0.00,,,0.00,vanprod-2.3,2013-10-29 05:51:00,
2013-10-29 00:56:00,32.4,24.1,30.37,NNE,24,1.0,1.0,71,0.00,,,0.00,vanprod-2.3,2013-10-29 05:56:00,
2013-10-29 01:01:00,32.6,24.3,30.37,NNE,24,2.0,3.0,71,0.00,,,0.00,vanprod-2.3,2013-10-29 06:01:00,
2013-10-29 01:06:00,32.6,24.3,30.37,NNE,24,3.0,3.0,71,0.00,,,0.00,vanprod-2.3,2013-10-29 06:06:00,
2013-10-29 01:11:00,32.6,24.3,30.37,NNE,24,2.0,3.0,71,0.00,,,0.00,vanprod-2.3,2013-10-29 06:11:00,
2013-10-29 01:16:00,32.6,24.3,30.37,NNE,24,2.0,3.0,71,0.00,,,0.00,vanprod-2.3,2013-10-29 06:16:00,
2013-10-29 01:21:00,32.6,24.6,30.37,NNE,24,2.0,3.0,72,0.00,,,0.00,vanprod-2.3,2013-10-29 06:21:00,
2013-10-29 01:26:00,32.6,24.6,30.37,NNE,24,2.0,5.0,72,0.00,,,0.00,vanprod-2.3,2013-10-29 06:26:00,
2013-10-29 01:31:00,32.6,24.6,30.37,NNE,24,2.0,2.0,72,0.00,,,0.00,vanprod-2.3,2013-10-29 06:31:00,
2013-10-29 01:36:00,32.6,24.6,30.38,NNE,24,0.0,0.0,72,0.00,,,0.00,vanprod-2.3,2013-10-29 06:36:00,
2013-10-29 01:41:00,32.6,24.6,30.38,NNE,24,0.0,0.0,72,0.00,,,0.00,vanprod-2.3,2013-10-29 06:41:00,
2013-10-29 01:46:00,32.6,24.6,30.38,NNE,24,1.0,3.0,72,0.00,,,0.00,vanprod-2.3,2013-10-29 06:46:00,
2013-10-29 01:51:00,32.6,24.9,30.38,NNE,24,3.0,3.0,73,0.00,,,0.00,vanprod-2.3,2013-10-29 06:51:00,
2013-10-29 01:56:00,32.6,24.9,30.38,NNE,24,1.0,3.0,73,0.00,,,0.00,vanprod-2.3,2013-10-29 06:56:00,
2013-10-29 02:01:00,32.6,24.9,30.38,NNE,24,2.0,4.0,73,0.00,,,0.00,vanprod-2.3,2013-10-29 07:01:00,
2013-10-29 02:06:00,32.6,24.9,30.38,NNE,24,1.0,1.0,73,0.00,,,0.00,vanprod-2.3,2013-10-29 07:06:00,
2013-10-29 02:11:00,32.6,24.9,30.38,NNE,24,1.0,5.0,73,0.00,,,0.00,vanprod-2.3,2013-10-29 07:11:00,
2013-10-29 02:16:00,32.6,24.9,30.38,NNE,24,2.0,2.0,73,0.00,,,0.00,vanprod-2.3,2013-10-29 07:16:00,
2013-10-29 02:21:00,32.6,25.2,30.38,NNE,24,1.0,1.0,74,0.00,,,0.00,vanprod-2.3,2013-10-29 07:21:00,
2013-10-29 02:26:00,32.6,25.2,30.39,NNE,24,0.0,1.0,74,0.00,,,0.00,vanprod-2.3,2013-10-29 07:26:00,
2013-10-29 02:31:00,32.6,25.2,30.39,NNE,24,1.0,2.0,74,0.00,,,0.00,vanprod-2.3,2013-10-29 07:31:00,
2013-10-29 02:36:00,32.4,25.4,30.39,NNE,24,1.0,3.0,75,0.00,,,0.00,vanprod-2.3,2013-10-29 07:36:00,
2013-10-29 02:41:00,32.3,25.3,30.38,NNE,24,0.0,2.0,75,0.00,,,0.00,vanprod-2.3,2013-10-29 07:41:00,
2013-10-29 02:46:00,32.3,25.3,30.38,NNE,24,0.0,1.0,75,0.00,,,0.00,vanprod-2.3,2013-10-29 07:46:00,
2013-10-29 02:51:00,32.2,25.5,30.38,NNE,24,2.0,3.0,76,0.00,,,0.00,vanprod-2.3,2013-10-29 07:51:00,
2013-10-29 02:56:00,32.2,25.5,30.37,NNE,24,3.0,3.0,76,0.00,,,0.00,vanprod-2.3,2013-10-29 07:56:00,
2013-10-29 03:01:00,32.0,25.3,30.36,NNE,24,3.0,6.0,76,0.00,,,0.00,vanprod-2.3,2013-10-29 08:01:00,
2013-10-29 03:06:00,32.0,25.3,30.36,NNE,24,3.0,6.0,76,0.00,,,0.00,vanprod-2.3,2013-10-29 08:06:00,
2013-10-29 03:11:00,32.0,25.3,30.36,NNE,24,3.0,7.0,76,0.00,,,0.00,vanprod-2.3,2013-10-29 08:11:00,
2013-10-29 03:16:00,32.0,25.3,30.36,NNE,21,4.0,5.0,76,0.00,,,0.00,vanprod-2.3,2013-10-29 08:16:00,
2013-10-29 03:21:00,32.0,25.3,30.36,NNE,21,3.0,5.0,76,0.00,,,0.00,vanprod-2.3,2013-10-29 08:21:00,
2013-10-29 03:26:00,32.0,25.3,30.36,NNE,21,2.0,2.0,76,0.00,,,0.00,vanprod-2.3,2013-10-29 08:26:00,
2013-10-29 03:31:00,32.0,25.3,30.36,NNE,21,1.0,2.0,76,0.00,,,0.00,vanprod-2.3,2013-10-29 08:31:00,
2013-10-29 03:36:00,32.0,25.6,30.35,NNE,21,2.0,2.0,77,0.00,,,0.00,vanprod-2.3,2013-10-29 08:36:00,
2013-10-29 03:41:00,32.0,25.3,30.35,NNE,21,1.0,2.0,76,0.00,,,0.00,vanprod-2.3,2013-10-29 08:41:00,
2013-10-29 03:46:00,32.0,25.6,30.35,NNE,21,1.0,1.0,77,0.00,,,0.00,vanprod-2.3,2013-10-29 08:46:00,
2013-10-29 03:51:00,32.0,25.6,30.34,NNE,21,1.0,3.0,77,0.00,,,0.00,vanprod-2.3,2013-10-29 08:51:00,
2013-10-29 03:56:00,32.0,25.6,30.34,NE,51,3.0,6.0,77,0.00,,,0.00,vanprod-2.3,2013-10-29 08:56:00,
2013-10-29 04:01:00,32.0,25.6,30.34,NE,49,1.0,5.0,77,0.00,,,0.00,vanprod-2.3,2013-10-29 09:01:00,
2013-10-29 04:06:00,32.2,25.8,30.34,NE,49,1.0,3.0,77,0.00,,,0.00,vanprod-2.3,2013-10-29 09:06:00,
2013-10-29 04:11:00,32.2,25.8,30.34,NE,49,1.0,2.0,77,0.00,,,0.00,vanprod-2.3,2013-10-29 09:11:00,
2013-10-29 04:16:00,32.2,25.8,30.33,NE,49,1.0,2.0,77,0.00,,,0.00,vanprod-2.3,2013-10-29 09:16:00,
2013-10-29 04:21:00,32.2,26.1,30.32,NE,49,2.0,4.0,78,0.00,,,0.00,vanprod-2.3,2013-10-29 09:21:00,
2013-10-29 04:26:00,32.2,25.8,30.32,NE,49,3.0,3.0,77,0.00,,,0.00,vanprod-2.3,2013-10-29 09:26:00,
2013-10-29 04:31:00,32.2,25.8,30.32,NE,49,3.0,4.0,77,0.00,,,0.00,vanprod-2.3,2013-10-29 09:31:00,
2013-10-29 04:36:00,32.2,25.8,30.32,NE,49,1.0,0.0,77,0.00,,,0.00,vanprod-2.3,2013-10-29 09:36:00,
2013-10-29 04:41:00,32.2,25.8,30.32,NE,49,1.0,1.0,77,0.00,,,0.00,vanprod-2.3,2013-10-29 09:41:00,
2013-10-29 04:46:00,32.2,25.8,30.32,NE,49,1.0,2.0,77,0.00,,,0.00,vanprod-2.3,2013-10-29 09:46:00,
2013-10-29 04:51:00,32.2,25.8,30.32,NE,49,1.0,1.0,77,0.00,,,0.00,vanprod-2.3,2013-10-29 09:51:00,
2013-10-29 04:56:00,32.2,25.8,30.32,NE,49,1.0,1.0,77,0.00,,,0.00,vanprod-2.3,2013-10-29 09:56:00,
2013-10-29 05:01:00,32.2,25.8,30.31,NE,49,2.0,2.0,77,0.00,,,0.00,vanprod-2.3,2013-10-29 10:01:00,
2013-10-29 05:06:00,32.2,26.1,30.31,NE,49,0.0,2.0,78,0.00,,,0.00,vanprod-2.3,2013-10-29 10:06:00,
2013-10-29 05:11:00,32.2,26.1,30.31,NE,49,0.0,2.0,78,0.00,,,0.00,vanprod-2.3,2013-10-29 10:11:00,
2013-10-29 05:16:00,32.2,25.8,30.31,NE,49,1.0,1.0,77,0.00,,,0.00,vanprod-2.3,2013-10-29 10:16:00,
2013-10-29 05:21:00,32.3,25.9,30.31,NE,49,1.0,2.0,77,0.00,,,0.00,vanprod-2.3,2013-10-29 10:21:00,
2013-10-29 05:26:00,32.3,25.9,30.31,NE,49,0.0,0.0,77,0.00,,,0.00,vanprod-2.3,2013-10-29 10:26:00,
2013-10-29 05:31:00,32.4,26.0,30.32,NE,49,0.0,0.0,77,0.00,,,0.00,vanprod-2.3,2013-10-29 10:31:00,
2013-10-29 05:36:00,32.4,26.0,30.32,NE,49,0.0,1.0,77,0.00,,,0.00,vanprod-2.3,2013-10-29 10:36:00,
2013-10-29 05:41:00,32.6,25.9,30.33,NE,49,0.0,0.0,76,0.00,,,0.00,vanprod-2.3,2013-10-29 10:41:00,
2013-10-29 05:46:00,32.7,26.0,30.32,NE,49,0.0,0.0,76,0.00,,,0.00,vanprod-2.3,2013-10-29 10:46:00,
2013-10-29 05:51:00,32.7,26.0,30.32,NE,49,0.0,2.0,76,0.00,,,0.00,vanprod-2.3,2013-10-29 10:51:00,
2013-10-29 05:56:00,32.7,26.0,30.32,NE,49,1.0,0.0,76,0.00,,,0.00,vanprod-2.3,2013-10-29 10:56:00,
2013-10-29 06:01:00,32.7,26.0,30.32,NE,49,0.0,1.0,76,0.00,,,0.00,vanprod-2.3,2013-10-29 11:01:00,
2013-10-29 06:06:00,32.9,26.2,30.32,NE,49,0.0,0.0,76,0.00,,,0.00,vanprod-2.3,2013-10-29 11:06:00,
2013-10-29 06:11:00,32.9,26.2,30.32,NE,49,0.0,0.0,76,0.00,,,0.00,vanprod-2.3,2013-10-29 11:11:00,
2013-10-29 06:16:00,33.0,26.3,30.32,NE,49,0.0,0.0,76,0.00,,,0.00,vanprod-2.3,2013-10-29 11:16:00,
2013-10-29 06:21:00,33.0,26.0,30.31,NE,49,0.0,0.0,75,0.00,,,0.00,vanprod-2.3,2013-10-29 11:21:00,
2013-10-29 06:26:00,33.2,26.1,30.31,NE,49,0.0,0.0,75,0.00,,,0.00,vanprod-2.3,2013-10-29 11:26:00,
2013-10-29 06:31:00,33.2,26.1,30.31,NE,49,0.0,0.0,75,0.00,,,0.00,vanprod-2.3,2013-10-29 11:31:00,
2013-10-29 06:36:00,33.2,26.1,30.30,NE,49,0.0,0.0,75,0.00,,,0.00,vanprod-2.3,2013-10-29 11:36:00,
2013-10-29 06:41:00,33.2,25.8,30.30,NE,49,0.0,0.0,74,0.00,,,0.00,vanprod-2.3,2013-10-29 11:41:00,
2013-10-29 06:46:00,33.2,25.5,30.29,NE,49,0.0,0.0,73,0.00,,,0.00,vanprod-2.3,2013-10-29 11:46:00,
2013-10-29 06:51:00,33.2,25.5,30.29,NE,49,0.0,0.0,73,0.00,,,0.00,vanprod-2.3,2013-10-29 11:51:00,
2013-10-29 06:56:00,33.2,25.5,30.29,NE,49,0.0,0.0,73,0.00,,,0.00,vanprod-2.3,2013-10-29 11:56:00,
2013-10-29 07:01:00,33.0,25.3,30.28,NE,49,0.0,1.0,73,0.00,,,0.00,vanprod-2.3,2013-10-29 12:01:00,
2013-10-29 07:06:00,33.0,25.6,30.28,NE,49,0.0,0.0,74,0.00,,,0.00,vanprod-2.3,2013-10-29 12:06:00,
2013-10-29 07:11:00,33.0,25.6,30.28,NE,49,1.0,0.0,74,0.00,,,0.00,vanprod-2.3,2013-10-29 12:11:00,
2013-10-29 07:16:00,32.9,25.5,30.27,NE,49,0.0,1.0,74,0.00,,,0.00,vanprod-2.3,2013-10-29 12:16:00,
2013-10-29 07:21:00,32.9,25.5,30.27,NE,49,1.0,1.0,74,0.00,,,0.00,vanprod-2.3,2013-10-29 12:21:00,
2013-10-29 07:26:00,32.9,25.5,30.27,NE,49,0.0,0.0,74,0.00,,,0.00,vanprod-2.3,2013-10-29 12:26:00,
2013-10-29 07:31:00,32.9,25.9,30.27,NE,49,0.0,0.0,75,0.00,,,0.00,vanprod-2.3,2013-10-29 12:31:00,
2013-10-29 07:36:00,32.7,25.7,30.27,NE,49,0.0,1.0,75,0.00,,,0.00,vanprod-2.3,2013-10-29 12:36:00,
2013-10-29 07:41:00,32.7,25.7,30.27,NE,49,0.0,0.0,75,0.00,,,0.00,vanprod-2.3,2013-10-29 12:41:00,
2013-10-29 07:46:00,32.7,25.7,30.27,NE,49,0.0,0.0,75,0.00,,,0.00,vanprod-2.3,2013-10-29 12:46:00,
2013-10-29 07:51:00,32.7,25.7,30.27,NE,49,0.0,0.0,75,0.00,,,0.00,vanprod-2.3,2013-10-29 12:51:00,
2013-10-29 07:56:00,32.7,25.7,30.27,NE,49,0.0,0.0,75,0.00,,,0.00,vanprod-2.3,2013-10-29 12:56:00,
2013-10-29 08:01:00,32.9,25.9,30.27,NE,49,0.0,0.0,75,0.00,,,0.00,vanprod-2.3,2013-10-29 13:01:00,
2013-10-29 08:06:00,32.7,25.7,30.27,NE,49,0.0,1.0,75,0.00,,,0.00,vanprod-2.3,2013-10-29 13:06:00,
2013-10-29 08:11:00,32.7,26.0,30.27,NE,49,0.0,0.0,76,0.00,,,0.00,vanprod-2.3,2013-10-29 13:11:00,
2013-10-29 08:16:00,32.9,26.2,30.27,NE,49,0.0,0.0,76,0.00,,,0.00,vanprod-2.3,2013-10-29 13:16:00,
2013-10-29 08:21:00,32.9,26.2,30.27,NE,49,0.0,0.0,76,0.00,,,0.00,vanprod-2.3,2013-10-29 13:21:00,
2013-10-29 08:26:00,32.9,26.2,30.28,NE,49,0.0,0.0,76,0.00,,,0.00,vanprod-2.3,2013-10-29 13:26:00,
2013-10-29 08:31:00,33.0,26.3,30.27,NE,49,0.0,0.0,76,0.00,,,0.00,vanprod-2.3,2013-10-29 13:31:00,
2013-10-29 08:36:00,33.0,26.3,30.27,NE,49,0.0,0.0,76,0.00,,,0.00,vanprod-2.3,2013-10-29 13:36:00,
2013-10-29 08:41:00,33.2,26.5,30.27,NE,49,0.0,0.0,76,0.00,,,0.00,vanprod-2.3,2013-10-29 13:41:00,
2013-10-29 08:46:00,33.2,26.5,30.26,NE,49,0.0,0.0,76,0.00,,,0.00,vanprod-2.3,2013-10-29 13:46:00,
2013-10-29 08:51:00,33.2,26.5,30.26,NE,49,0.0,0.0,76,0.00,,,0.00,vanprod-2.3,2013-10-29 13:51:00,
2013-10-29 08:56:00,33.2,26.5,30.26,NE,49,0.0,0.0,76,0.00,,,0.00,vanprod-2.3,2013-10-29 13:56:00,
2013-10-29 09:01:00,33.2,26.5,30.26,NE,49,0.0,0.0,76,0.00,,,0.00,vanprod-2.3,2013-10-29 14:01:00,
2013-10-29 09:06:00,33.2,26.8,30.26,NE,49,0.0,0.0,77,0.00,,,0.00,vanprod-2.3,2013-10-29 14:06:00,
2013-10-29 09:11:00,33.3,26.9,30.25,NE,49,0.0,1.0,77,0.00,,,0.00,vanprod-2.3,2013-10-29 14:11:00,
2013-10-29 09:16:00,33.2,27.1,30.26,NE,49,1.0,3.0,78,0.00,,,0.00,vanprod-2.3,2013-10-29 14:16:00,
2013-10-29 09:21:00,33.2,27.1,30.26,NE,49,0.0,0.0,78,0.00,,,0.00,vanprod-2.3,2013-10-29 14:21:00,
2013-10-29 09:26:00,33.2,27.1,30.26,NE,49,0.0,0.0,78,0.00,,,0.00,vanprod-2.3,2013-10-29 14:26:00,
2013-10-29 09:31:00,33.3,27.2,30.26,NE,49,0.0,0.0,78,0.00,,,0.00,vanprod-2.3,2013-10-29 14:31:00,
2013-10-29 09:36:00,33.3,27.2,30.26,NE,49,0.0,1.0,78,0.00,,,0.00,vanprod-2.3,2013-10-29 14:36:00,
2013-10-29 09:41:00,33.5,27.4,30.26,NE,49,0.0,0.0,78,0.00,,,0.00,vanprod-2.3,2013-10-29 14:41:00,
2013-10-29 09:46:00,33.5,27.4,30.26,NE,49,0.0,0.0,78,0.00,,,0.00,vanprod-2.3,2013-10-29 14:46:00,
2013-10-29 09:51:00,33.6,27.2,30.26,NE,49,0.0,0.0,77,0.00,,,0.00,vanprod-2.3,2013-10-29 14:51:00,
2013-10-29 09:56:00,33.6,27.2,30.26,NE,49,0.0,0.0,77,0.00,,,0.00,vanprod-2.3,2013-10-29 14:56:00,
2013-10-29 10:01:00,33.6,27.2,30.26,NE,49,0.0,0.0,77,0.00,,,0.00,vanprod-2.3,2013-10-29 15:01:00,
2013-10-29 10:06:00,33.8,27.4,30.25,NE,49,1.0,1.0,77,0.00,,,0.00,vanprod-2.3,2013-10-29 15:06:00,
2013-10-29 10:11:00,33.8,27.4,30.25,NE,49,0.0,0.0,77,0.00,,,0.00,vanprod-2.3,2013-10-29 15:11:00,
2013-10-29 10:16:00,33.9,27.8,30.25,NE,49,0.0,0.0,78,0.00,,,0.00,vanprod-2.3,2013-10-29 15:16:00,
2013-10-29 10:21:00,33.9,27.5,30.24,NE,49,0.0,1.0,77,0.00,,,0.00,vanprod-2.3,2013-10-29 15:21:00,
2013-10-29 10:26:00,34.1,27.7,30.24,NE,49,0.0,0.0,77,0.00,,,0.00,vanprod-2.3,2013-10-29 15:26:00,
2013-10-29 10:31:00,34.2,27.8,30.25,NE,49,1.0,2.0,77,0.00,,,0.00,vanprod-2.3,2013-10-29 15:31:00,
2013-10-29 10:36:00,34.2,27.8,30.25,NE,49,0.0,0.0,77,0.00,,,0.00,vanprod-2.3,2013-10-29 15:36:00,
2013-10-29 10:41:00,34.2,27.8,30.25,NE,49,0.0,0.0,77,0.00,,,0.00,vanprod-2.3,2013-10-29 15:41:00,
2013-10-29 10:46:00,34.4,27.9,30.25,NE,49,0.0,0.0,77,0.00,,,0.00,vanprod-2.3,2013-10-29 15:46:00,
2013-10-29 10:51:00,34.4,27.9,30.24,NE,49,0.0,0.0,77,0.00,,,0.00,vanprod-2.3,2013-10-29 15:51:00,
2013-10-29 10:56:00,34.5,28.0,30.24,NE,49,1.0,2.0,77,0.00,,,0.00,vanprod-2.3,2013-10-29 15:56:00,
2013-10-29 11:01:00,34.7,28.2,30.24,NE,49,0.0,1.0,77,0.00,,,0.00,vanprod-2.3,2013-10-29 16:01:00,
2013-10-29 11:06:00,34.8,28.7,30.23,NE,49,0.0,1.0,78,0.00,,,0.00,vanprod-2.3,2013-10-29 16:06:00,
2013-10-29 11:11:00,34.8,28.3,30.23,NE,49,0.0,3.0,77,0.00,,,0.00,vanprod-2.3,2013-10-29 16:11:00,
2013-10-29 11:16:00,35.0,28.5,30.23,NE,49,0.0,1.0,77,0.00,,,0.00,vanprod-2.3,2013-10-29 16:16:00,
2013-10-29 11:21:00,35.1,28.6,30.23,NE,49,0.0,1.0,77,0.00,,,0.00,vanprod-2.3,2013-10-29 16:21:00,
2013-10-29 11:26:00,35.3,28.5,30.23,NE,49,2.0,2.0,76,0.00,,,0.00,vanprod-2.3,2013-10-29 16:26:00,
2013-10-29 11:31:00,35.4,28.9,30.23,NE,49,0.0,0.0,77,0.00,,,0.00,vanprod-2.3,2013-10-29 16:31:00,
2013-10-29 11:36:00,35.4,28.9,30.23,NE,49,0.0,0.0,77,0.00,,,0.00,vanprod-2.3,2013-10-29 16:36:00,
2013-10-29 11:41:00,35.5,29.0,30.23,NE,49,0.0,0.0,77,0.00,,,0.00,vanprod-2.3,2013-10-29 16:41:00,
2013-10-29 11:46:00,35.5,29.0,30.22,NE,49,0.0,1.0,77,0.00,,,0.00,vanprod-2.3,2013-10-29 16:46:00,
2013-10-29 11:51:00,35.5,29.0,30.22,NE,49,1.0,1.0,77,0.00,,,0.00,vanprod-2.3,2013-10-29 16:51:00,
2013-10-29 11:56:00,35.5,29.0,30.21,NE,49,2.0,2.0,77,0.00,,,0.00,vanprod-2.3,2013-10-29 16:56:00,
2013-10-29 12:01:00,35.5,29.3,30.21,NE,49,2.0,2.0,78,0.00,,,0.00,vanprod-2.3,2013-10-29 17:01:00,
2013-10-29 12:06:00,35.7,29.5,30.21,NE,49,1.0,1.0,78,0.00,,,0.00,vanprod-2.3,2013-10-29 17:06:00,
2013-10-29 12:11:00,35.7,29.5,30.21,NE,49,0.0,0.0,78,0.00,,,0.00,vanprod-2.3,2013-10-29 17:11:00,
2013-10-29 12:16:00,36.0,29.8,30.22,NE,49,1.0,0.0,78,0.00,,,0.00,vanprod-2.3,2013-10-29 17:16:00,
2013-10-29 12:21:00,36.0,30.1,30.21,NE,49,0.0,1.0,79,0.00,,,0.00,vanprod-2.3,2013-10-29 17:21:00,
2013-10-29 12:26:00,36.0,30.4,30.20,NE,49,1.0,0.0,80,0.00,,,0.00,vanprod-2.3,2013-10-29 17:26:00,
2013-10-29 12:31:00,35.8,30.9,30.20,NE,49,1.0,1.0,82,0.00,,,0.00,vanprod-2.3,2013-10-29 17:31:00,
2013-10-29 12:36:00,35.7,31.1,30.20,NE,49,0.0,0.0,83,0.00,,,0.00,vanprod-2.3,2013-10-29 17:36:00,
2013-10-29 12:41:00,35.7,31.1,30.20,NE,49,0.0,0.0,83,0.00,,,0.00,vanprod-2.3,2013-10-29 17:41:00,
2013-10-29 12:46:00,35.5,30.9,30.20,NE,49,0.0,0.0,83,0.00,,,0.00,vanprod-2.3,2013-10-29 17:46:00,
2013-10-29 12:51:00,35.5,31.2,30.20,NE,49,2.0,0.0,84,0.00,,,0.00,vanprod-2.3,2013-10-29 17:51:00,
2013-10-29 12:56:00,35.5,31.4,30.20,NE,49,0.0,0.0,85,0.00,,,0.00,vanprod-2.3,2013-10-29 17:56:00,
2013-10-29 13:01:00,35.4,31.1,30.20,NE,49,0.0,0.0,84,0.00,,,0.00,vanprod-2.3,2013-10-29 18:01:00,
2013-10-29 13:06:00,35.4,31.3,30.20,NE,49,0.0,0.0,85,0.00,,,0.00,vanprod-2.3,2013-10-29 18:06:00,
2013-10-29 13:11:00,35.4,31.3,30.20,NE,49,2.0,2.0,85,0.00,,,0.00,vanprod-2.3,2013-10-29 18:11:00,
2013-10-29 13:16:00,35.4,31.6,30.20,NE,49,1.0,0.0,86,0.00,,,0.00,vanprod-2.3,2013-10-29 18:16:00,
2013-10-29 13:21:00,35.4,31.3,30.19,NE,49,3.0,3.0,85,0.00,,,0.00,vanprod-2.3,2013-10-29 18:21:00,
2013-10-29 13:26:00,35.4,31.3,30.18,NE,49,1.0,2.0,85,0.00,,,0.00,vanprod-2.3,2013-10-29 18:26:00,
2013-10-29 13:31:00,35.4,31.6,30.19,NE,49,0.0,0.0,86,0.00,,,0.00,vanprod-2.3,2013-10-29 18:31:00,
2013-10-29 13:36:00,35.5,31.7,30.19,NE,49,1.0,2.0,86,0.00,,,0.00,vanprod-2.3,2013-10-29 18:36:00,
2013-10-29 13:41:00,35.5,31.4,30.18,NE,49,2.0,0.0,85,0.00,,,0.00,vanprod-2.3,2013-10-29 18:41:00,
2013-10-29 13:46:00,35.5,31.4,30.18,NE,49,0.0,0.0,85,0.00,,,0.00,vanprod-2.3,2013-10-29 18:46:00,
2013-10-29 13:51:00,35.5,31.7,30.18,NE,49,0.0,0.0,86,0.00,,,0.00,vanprod-2.3,2013-10-29 18:51:00,
2013-10-29 13:56:00,35.5,31.4,30.18,NE,49,2.0,2.0,85,0.00,,,0.00,vanprod-2.3,2013-10-29 18:56:00,
2013-10-29 14:01:00,35.4,31.6,30.18,NE,49,0.0,0.0,86,0.00,,,0.00,vanprod-2.3,2013-10-29 19:01:00,
2013-10-29 14:06:00,35.4,31.6,30.18,NE,49,1.0,0.0,86,0.00,,,0.00,vanprod-2.3,2013-10-29 19:06:00,
2013-10-29 14:11:00,35.3,31.8,30.18,NE,49,0.0,2.0,87,0.00,,,0.00,vanprod-2.3,2013-10-29 19:11:00,
2013-10-29 14:16:00,35.3,31.8,30.17,NE,49,1.0,1.0,87,0.00,,,0.00,vanprod-2.3,2013-10-29 19:16:00,
2013-10-29 14:21:00,35.1,31.9,30.17,NE,49,1.0,3.0,88,0.00,,,0.00,vanprod-2.3,2013-10-29 19:21:00,
2013-10-29 14:26:00,35.0,31.8,30.17,NE,49,0.0,1.0,88,0.00,,,0.00,vanprod-2.3,2013-10-29 19:26:00,
2013-10-29 14:31:00,34.8,31.9,30.17,NE,49,2.0,2.0,89,0.00,,,0.00,vanprod-2.3,2013-10-29 19:31:00,
2013-10-29 14:36:00,34.8,31.9,30.16,NE,48,2.0,2.0,89,0.00,,,0.00,vanprod-2.3,2013-10-29 19:36:00,
2013-10-29 14:41:00,34.8,31.9,30.16,NE,48,1.0,0.0,89,0.00,,,0.00,vanprod-2.3,2013-10-29 19:41:00,
2013-10-29 14:46:00,34.8,31.9,30.15,NE,48,2.0,2.0,89,0.00,,,0.00,vanprod-2.3,2013-10-29 19:46:00,
2013-10-29 14:51:00,34.8,32.2,30.15,NE,48,1.0,0.0,90,0.00,,,0.00,vanprod-2.3,2013-10-29 19:51:00,
2013-10-29 14:56:00,35.0,32.4,30.15,NE,48,2.0,2.0,90,0.00,,,0.00,vanprod-2.3,2013-10-29 19:56:00,
2013-10-29 15:01:00,35.0,32.4,30.15,NE,48,0.0,0.0,90,0.00,,,0.00,vanprod-2.3,2013-10-29 20:01:00,
2013-10-29 15:06:00,35.0,32.4,30.15,NE,48,0.0,0.0,90,0.00,,,0.00,vanprod-2.3,2013-10-29 20:06:00,
2013-10-29 15:11:00,35.0,32.4,30.14,NE,48,1.0,1.0,90,0.00,,,0.00,vanprod-2.3,2013-10-29 20:11:00,
2013-10-29 15:16:00,35.0,32.4,30.15,NE,48,1.0,0.0,90,0.00,,,0.00,vanprod-2.3,2013-10-29 20:16:00,
2013-10-29 15:21:00,35.1,32.5,30.14,NE,48,2.0,2.0,90,0.00,,,0.00,vanprod-2.3,2013-10-29 20:21:00,
2013-10-29 15:26:00,35.3,32.7,30.14,NE,48,0.0,0.0,90,0.00,,,0.00,vanprod-2.3,2013-10-29 20:26:00,
2013-10-29 15:31:00,35.3,32.7,30.14,NE,48,2.0,3.0,90,0.00,,,0.00,vanprod-2.3,2013-10-29 20:31:00,
2013-10-29 15:36:00,35.4,32.8,30.13,NE,48,1.0,0.0,90,0.00,,,0.00,vanprod-2.3,2013-10-29 20:36:00,
2013-10-29 15:41:00,35.4,32.8,30.12,NE,48,0.0,0.0,90,0.00,,,0.00,vanprod-2.3,2013-10-29 20:41:00,
2013-10-29 15:46:00,35.7,33.1,30.12,NE,48,1.0,0.0,90,0.00,,,0.00,vanprod-2.3,2013-10-29 20:46:00,
2013-10-29 15:51:00,35.7,33.1,30.12,NE,48,1.0,0.0,90,0.00,,,0.00,vanprod-2.3,2013-10-29 20:51:00,
2013-10-29 15:56:00,35.7,33.1,30.12,NE,48,1.0,0.0,90,0.00,,,0.00,vanprod-2.3,2013-10-29 20:56:00,
2013-10-29 16:01:00,35.8,33.2,30.12,NE,47,2.0,2.0,90,0.00,,,0.00,vanprod-2.3,2013-10-29 21:01:00,
2013-10-29 16:06:00,36.0,33.4,30.11,NE,47,2.0,2.0,90,0.00,,,0.00,vanprod-2.3,2013-10-29 21:06:00,
2013-10-29 16:11:00,36.0,33.1,30.11,NE,47,2.0,0.0,89,0.00,,,0.00,vanprod-2.3,2013-10-29 21:11:00,
2013-10-29 16:16:00,36.0,33.1,30.11,NE,47,0.0,1.0,89,0.00,,,0.00,vanprod-2.3,2013-10-29 21:16:00,
2013-10-29 16:21:00,36.0,33.1,30.12,NE,47,1.0,3.0,89,0.00,,,0.00,vanprod-2.3,2013-10-29 21:21:00,
2013-10-29 16:26:00,36.1,33.2,30.11,NE,47,1.0,6.0,89,0.00,,,0.00,vanprod-2.3,2013-10-29 21:26:00,
2013-10-29 16:31:00,36.1,33.2,30.11,NE,47,1.0,2.0,89,0.00,,,0.00,vanprod-2.3,2013-10-29 21:31:00,
2013-10-29 16:36:00,36.1,33.2,30.11,NE,47,1.0,2.0,89,0.00,,,0.00,vanprod-2.3,2013-10-29 21:36:00,
2013-10-29 16:41:00,36.0,33.1,30.11,NE,47,2.0,5.0,89,0.00,,,0.00,vanprod-2.3,2013-10-29 21:41:00,
2013-10-29 16:46:00,36.0,33.1,30.11,NE,47,1.0,0.0,89,0.00,,,0.00,vanprod-2.3,2013-10-29 21:46:00,
2013-10-29 16:51:00,36.0,33.1,30.10,NE,47,1.0,0.0,89,0.00,,,0.00,vanprod-2.3,2013-10-29 21:51:00,
2013-10-29 16:56:00,36.0,33.1,30.11,NE,47,2.0,0.0,89,0.00,,,0.00,vanprod-2.3,2013-10-29 21:56:00,
2013-10-29 17:01:00,36.0,33.1,30.11,NE,47,2.0,2.0,89,0.00,,,0.00,vanprod-2.3,2013-10-29 22:01:00,
2013-10-29 17:06:00,36.1,33.2,30.10,NE,47,1.0,1.0,89,0.00,,,0.00,vanprod-2.3,2013-10-29 22:06:00,
2013-10-29 17:11:00,36.1,33.2,30.10,NE,47,1.0,2.0,89,0.00,,,0.00,vanprod-2.3,2013-10-29 22:11:00,
2013-10-29 17:16:00,36.1,33.2,30.10,NE,47,2.0,0.0,89,0.00,,,0.00,vanprod-2.3,2013-10-29 22:16:00,
2013-10-29 17:21:00,36.1,33.2,30.10,NE,47,1.0,0.0,89,0.00,,,0.00,vanprod-2.3,2013-10-29 22:21:00,
2013-10-29 17:26:00,36.3,33.4,30.11,NE,47,0.0,1.0,89,0.00,,,0.00,vanprod-2.3,2013-10-29 22:26:00,
2013-10-29 17:31:00,36.3,33.4,30.11,NE,47,0.0,1.0,89,0.00,,,0.00,vanprod-2.3,2013-10-29 22:31:00,
2013-10-29 17:36:00,36.1,33.2,30.11,NE,47,1.0,0.0,89,0.00,,,0.00,vanprod-2.3,2013-10-29 22:36:00,
2013-10-29 17:41:00,36.1,33.2,30.11,NE,47,1.0,0.0,89,0.00,,,0.00,vanprod-2.3,2013-10-29 22:41:00,
2013-10-29 17:46:00,36.0,33.1,30.11,NE,47,0.0,0.0,89,0.00,,,0.00,vanprod-2.3,2013-10-29 22:46:00,
2013-10-29 17:51:00,36.0,33.1,30.11,NE,47,0.0,0.0,89,0.00,,,0.00,vanprod-2.3,2013-10-29 22:51:00,
2013-10-29 17:56:00,36.0,33.1,30.11,NE,47,0.0,0.0,89,0.00,,,0.00,vanprod-2.3,2013-10-29 22:56:00,
2013-10-29 18:01:00,36.0,33.1,30.10,NE,47,1.0,0.0,89,0.00,,,0.00,vanprod-2.3,2013-10-29 23:01:00,
2013-10-29 18:06:00,36.0,33.4,30.10,NE,47,0.0,0.0,90,0.00,,,0.00,vanprod-2.3,2013-10-29 23:06:00,
2013-10-29 18:11:00,36.0,33.4,30.10,NE,47,0.0,1.0,90,0.00,,,0.00,vanprod-2.3,2013-10-29 23:11:00,
2013-10-29 18:16:00,36.0,33.4,30.10,NE,47,1.0,1.0,90,0.00,,,0.00,vanprod-2.3,2013-10-29 23:16:00,
2013-10-29 18:21:00,35.8,33.4,30.10,NE,47,0.0,0.0,91,0.00,,,0.00,vanprod-2.3,2013-10-29 23:21:00,
2013-10-29 18:26:00,35.8,33.4,30.10,NE,47,0.0,1.0,91,0.00,,,0.00,vanprod-2.3,2013-10-29 23:26:00,
2013-10-29 18:31:00,35.7,33.3,30.09,NE,47,0.0,0.0,91,0.00,,,0.00,vanprod-2.3,2013-10-29 23:31:00,
2013-10-29 18:36:00,35.7,33.3,30.09,NE,47,1.0,1.0,91,0.00,,,0.00,vanprod-2.3,2013-10-29 23:36:00,
2013-10-29 18:41:00,35.5,33.1,30.09,NE,47,1.0,0.0,91,0.00,,,0.00,vanprod-2.3,2013-10-29 23:41:00,
2013-10-29 18:46:00,35.5,33.4,30.10,NE,47,0.0,0.0,92,0.00,,,0.00,vanprod-2.3,2013-10-29 23:46:00,
2013-10-29 18:51:00,35.5,33.4,30.10,NE,47,2.0,2.0,92,0.00,,,0.00,vanprod-2.3,2013-10-29 23:51:00,
2013-10-29 18:56:00,35.5,33.4,30.10,NE,47,0.0,0.0,92,0.00,,,0.00,vanprod-2.3,2013-10-29 23:56:00,
2013-10-29 19:01:00,35.5,33.4,30.10,NE,47,0.0,0.0,92,0.00,,,0.00,vanprod-2.3,2013-10-30 00:01:00,
2013-10-29 19:06:00,35.5,33.4,30.10,NE,47,0.0,0.0,92,0.00,,,0.00,vanprod-2.3,2013-10-30 00:06:00,
2013-10-29 19:11:00,35.5,33.1,30.10,NE,47,0.0,1.0,91,0.00,,,0.00,vanprod-2.3,2013-10-30 00:11:00,
2013-10-29 19:16:00,35.5,33.4,30.10,NE,47,0.0,1.0,92,0.00,,,0.00,vanprod-2.3,2013-10-30 00:16:00,
2013-10-29 19:21:00,35.5,33.4,30.10,NE,47,0.0,0.0,92,0.00,,,0.00,vanprod-2.3,2013-10-30 00:21:00,
2013-10-29 19:26:00,35.4,33.0,30.10,NE,47,0.0,0.0,91,0.00,,,0.00,vanprod-2.3,2013-10-30 00:26:00,
2013-10-29 19:31:00,35.4,33.3,30.10,NE,47,0.0,5.0,92,0.00,,,0.00,vanprod-2.3,2013-10-30 00:31:00,
2013-10-29 19:36:00,35.4,33.0,30.10,NE,47,1.0,0.0,91,0.00,,,0.00,vanprod-2.3,2013-10-30 00:36:00,
2013-10-29 19:41:00,35.3,33.2,30.10,NE,47,0.0,0.0,92,0.00,,,0.00,vanprod-2.3,2013-10-30 00:41:00,
2013-10-29 19:46:00,35.3,32.9,30.10,NE,47,2.0,5.0,91,0.00,,,0.00,vanprod-2.3,2013-10-30 00:46:00,
2013-10-29 19:51:00,35.3,32.9,30.10,NE,47,2.0,3.0,91,0.00,,,0.00,vanprod-2.3,2013-10-30 00:51:00,
2013-10-29 19:56:00,35.3,32.9,30.10,NE,47,0.0,1.0,91,0.00,,,0.00,vanprod-2.3,2013-10-30 00:56:00,
2013-10-29 20:01:00,35.3,32.9,30.10,NE,47,1.0,0.0,91,0.00,,,0.00,vanprod-2.3,2013-10-30 01:01:00,
2013-10-29 20:06:00,35.3,32.9,30.10,NE,47,0.0,0.0,91,0.00,,,0.00,vanprod-2.3,2013-10-30 01:06:00,
2013-10-29 20:11:00,35.3,32.9,30.09,NE,47,0.0,0.0,91,0.00,,,0.00,vanprod-2.3,2013-10-30 01:11:00,
2013-10-29 20:16:00,35.3,32.9,30.09,NE,47,1.0,2.0,91,0.00,,,0.00,vanprod-2.3,2013-10-30 01:16:00,
2013-10-29 20:21:00,35.3,32.9,30.09,NE,47,1.0,3.0,91,0.00,,,0.00,vanprod-2.3,2013-10-30 01:21:00,
2013-10-29 20:26:00,35.3,32.9,30.09,NE,47,0.0,0.0,91,0.00,,,0.00,vanprod-2.3,2013-10-30 01:26:00,
2013-10-29 20:31:00,35.3,32.7,30.09,NE,47,0.0,0.0,90,0.00,,,0.00,vanprod-2.3,2013-10-30 01:31:00,
2013-10-29 20:36:00,35.3,32.9,30.09,NE,47,0.0,1.0,91,0.00,,,0.00,vanprod-2.3,2013-10-30 01:36:00,
2013-10-29 20:41:00,35.3,32.7,30.09,NE,47,0.0,0.0,90,0.00,,,0.00,vanprod-2.3,2013-10-30 01:41:00,
2013-10-29 20:46:00,35.3,32.7,30.09,NE,47,0.0,0.0,90,0.00,,,0.00,vanprod-2.3,2013-10-30 01:46:00,
2013-10-29 20:51:00,35.3,32.7,30.10,NE,47,0.0,0.0,90,0.00,,,0.00,vanprod-2.3,2013-10-30 01:51:00,
2013-10-29 20:56:00,35.3,32.7,30.09,NE,47,0.0,0.0,90,0.00,,,0.00,vanprod-2.3,2013-10-30 01:56:00,
2013-10-29 21:01:00,35.3,32.7,30.09,NE,47,0.0,1.0,90,0.00,,,0.00,vanprod-2.3,2013-10-30 02:01:00,
2013-10-29 21:06:00,35.1,32.5,30.09,NE,47,0.0,1.0,90,0.00,,,0.00,vanprod-2.3,2013-10-30 02:06:00,
2013-10-29 21:11:00,35.1,32.5,30.09,NE,47,1.0,1.0,90,0.00,,,0.00,vanprod-2.3,2013-10-30 02:11:00,
2013-10-29 21:16:00,35.1,32.5,30.09,NE,47,0.0,0.0,90,0.00,,,0.00,vanprod-2.3,2013-10-30 02:16:00,
2013-10-29 21:21:00,35.3,32.7,30.09,NE,47,0.0,0.0,90,0.00,,,0.00,vanprod-2.3,2013-10-30 02:21:00,
2013-10-29 21:26:00,35.3,32.9,30.09,NE,47,0.0,0.0,91,0.00,,,0.00,vanprod-2.3,2013-10-30 02:26:00,
2013-10-29 21:31:00,35.3,32.7,30.09,NE,47,1.0,2.0,90,0.00,,,0.00,vanprod-2.3,2013-10-30 02:31:00,
2013-10-29 21:36:00,35.3,32.7,30.09,NE,47,0.0,0.0,90,0.00,,,0.00,vanprod-2.3,2013-10-30 02:36:00,
2013-10-29 21:41:00,35.3,32.7,30.09,NE,47,0.0,0.0,90,0.00,,,0.00,vanprod-2.3,2013-10-30 02:41:00,
2013-10-29 21:46:00,35.3,32.7,30.09,NE,47,0.0,0.0,90,0.00,,,0.00,vanprod-2.3,2013-10-30 02:46:00,
2013-10-29 21:51:00,35.3,32.7,30.09,NE,47,0.0,0.0,90,0.00,,,0.00,vanprod-2.3,2013-10-30 02:51:00,
2013-10-29 21:56:00,35.3,32.7,30.09,NE,47,0.0,0.0,90,0.00,,,0.00,vanprod-2.3,2013-10-30 02:56:00,
2013-10-29 22:01:00,35.3,32.7,30.09,NE,47,0.0,0.0,90,0.00,,,0.00,vanprod-2.3,2013-10-30 03:01:00,
2013-10-29 22:06:00,35.3,32.7,30.09,NE,47,0.0,0.0,90,0.00,,,0.00,vanprod-2.3,2013-10-30 03:06:00,
2013-10-29 22:11:00,35.3,32.7,30.09,NE,47,0.0,0.0,90,0.00,,,0.00,vanprod-2.3,2013-10-30 03:11:00,
2013-10-29 22:16:00,35.3,32.9,30.09,NE,47,0.0,1.0,91,0.00,,,0.00,vanprod-2.3,2013-10-30 03:16:00,
2013-10-29 22:21:00,35.3,32.9,30.08,NE,47,0.0,0.0,91,0.00,,,0.00,vanprod-2.3,2013-10-30 03:21:00,
2013-10-29 22:26:00,35.3,32.9,30.08,NE,47,0.0,0.0,91,0.00,,,0.00,vanprod-2.3,2013-10-30 03:26:00,
2013-10-29 22:31:00,35.3,32.9,30.09,NE,47,0.0,0.0,91,0.00,,,0.00,vanprod-2.3,2013-10-30 03:31:00,
2013-10-29 22:36:00,35.3,32.9,30.09,NE,47,1.0,1.0,91,0.00,,,0.00,vanprod-2.3,2013-10-30 03:36:00,
2013-10-29 22:41:00,35.3,33.2,30.09,NE,47,0.0,0.0,92,0.00,,,0.00,vanprod-2.3,2013-10-30 03:41:00,
2013-10-29 22:46:00,35.3,33.2,30.09,NE,47,1.0,1.0,92,0.00,,,0.00,vanprod-2.3,2013-10-30 03:46:00,
2013-10-29 22:51:00,35.3,33.2,30.09,NE,47,0.0,0.0,92,0.00,,,0.00,vanprod-2.3,2013-10-30 03:51:00,
2013-10-29 22:56:00,35.3,32.9,30.09,NE,47,1.0,0.0,91,0.00,,,0.00,vanprod-2.3,2013-10-30 03:56:00,
2013-10-29 23:01:00,35.3,32.9,30.09,NE,47,0.0,2.0,91,0.00,,,0.00,vanprod-2.3,2013-10-30 04:01:00,
2013-10-29 23:06:00,35.4,33.0,30.09,NE,47,0.0,1.0,91,0.00,,,0.00,vanprod-2.3,2013-10-30 04:06:00,
2013-10-29 23:11:00,35.4,33.0,30.09,NE,47,1.0,1.0,91,0.00,,,0.00,vanprod-2.3,2013-10-30 04:11:00,
2013-10-29 23:16:00,35.4,33.0,30.08,NE,47,1.0,2.0,91,0.00,,,0.00,vanprod-2.3,2013-10-30 04:16:00,
2013-10-29 23:21:00,35.4,33.0,30.08,NE,47,0.0,0.0,91,0.00,,,0.00,vanprod-2.3,2013-10-30 04:21:00,
2013-10-29 23:26:00,35.4,33.0,30.08,NE,47,1.0,3.0,91,0.00,,,0.00,vanprod-2.3,2013-10-30 04:26:00,
2013-10-29 23:31:00,35.4,33.0,30.07,NE,47,1.0,2.0,91,0.00,,,0.00,vanprod-2.3,2013-10-30 04:31:00,
2013-10-29 23:36:00,35.5,33.1,30.07,NE,47,0.0,2.0,91,0.00,,,0.00,vanprod-2.3,2013-10-30 04:36:00,
2013-10-29 23:41:00,35.5,33.1,30.07,NE,47,0.0,0.0,91,0.00,,,0.00,vanprod-2.3,2013-10-30 04:41:00,
2013-10-29 23:46:00,35.5,33.1,30.07,NE,47,1.0,1.0,91,0.00,,,0.00,vanprod-2.3,2013-10-30 04:46:00,
2013-10-29 23:51:00,35.5,33.1,30.07,NE,47,0.0,0.0,91,0.00,,,0.00,vanprod-2.3,2013-10-30 04:51:00,
2013-10-29 23:56:00,35.5,33.1,30.07,NE,47,0.0,0.0,91,0.00,,,0.00,vanprod-2.3,2013-10-30 04:56:00,